Location: Church Tower
(37.7144°N, 119.6316°W)
Time: 19:31:50
(UTC+00:00)

Cosmos 1455 Rocket - Pass Details

Date: 15 November 2025
Orbit: 599 x 621 km, 82.5° (Epoch: 08 December)

Event Time Altitude Azimuth Distance (km) Brightness Sun altitude
Rises 14:07:29 0° 358° (N) 2,867 6.3 -6.7°
Reaches altitude 10° 14:09:45 10° 3° (N) 1,962 5.5 -6.2°
Maximum altitude 14:14:00 53° 80° (E) 750 4.0 -5.5°
Drops below altitude 10° 14:18:15 10° 158° (SSE) 1,962 6.3 -4.7°
Sets 14:20:31 0° 163° (SSE) 2,866 7.1 -4.2°
